| time (UTC) | temp F | wind direction | speed MPH | gust MPH | rain 1hr in | rain 24hr in | rain mn in | humidity % | barometer mb |
| 20260904211812 | 67 | 134 | 3.0 | 8.0 | 0.00 | 0.55 | 0.55 | 91 | 1019.3 |
| 20260904211307 | 67 | 199 | 3.0 | 7.0 | 0.00 | 0.55 | 0.55 | 91 | 1019.2 |
| 20260904210802 | 66 | 162 | 3.0 | 7.0 | 0.00 | 0.55 | 0.55 | 91 | 1019.1 |
| 20260904210301 | 66 | 167 | 4.0 | 7.0 | 0.00 | 0.55 | 0.55 | 91 | 1019.3 |
| 20260904205758 | 66 | 166 | 4.0 | 8.0 | 0.00 | 0.55 | 0.55 | 91 | 1019.3 |
| 20260904205254 | 66 | 199 | 5.0 | 9.0 | 0.00 | 0.55 | 0.55 | 91 | 1019.2 |
| 20260904204750 | 66 | 178 | 4.0 | 8.0 | 0.00 | 0.55 | 0.55 | 91 | 1019.3 |
| 20260904204246 | 66 | 204 | 4.0 | 6.0 | 0.00 | 0.55 | 0.55 | 91 | 1019.4 |
| 20260904203742 | 67 | 188 | 1.0 | 8.0 | 0.00 | 0.55 | 0.55 | 91 | 1019.2 |
| 20260904203238 | 66 | 145 | 6.0 | 10.0 | 0.00 | 0.55 | 0.55 | 90 | 1019.4 |
| 20260904202734 | 67 | 159 | 6.0 | 8.0 | 0.00 | 0.55 | 0.55 | 89 | 1019.2 |
| 20260904202230 | 67 | 143 | 2.0 | 3.0 | 0.00 | 0.55 | 0.55 | 90 | 1019.2 |
| 20260904201725 | 67 | 125 | 2.0 | 4.0 | 0.00 | 0.55 | 0.55 | 89 | 1019.1 |
| 20260904201225 | 67 | 121 | 6.0 | 9.0 | 0.00 | 0.55 | 0.55 | 89 | 1019.1 |
| 20260904200720 | 67 | 151 | 4.0 | 4.0 | 0.00 | 0.55 | 0.55 | 89 | 1019.1 |
| 20260904200215 | 67 | 127 | 7.0 | 11.0 | 0.00 | 0.55 | 0.55 | 88 | 1019.0 |
| 20260904195714 | 67 | 90 | 4.0 | 7.0 | 0.00 | 0.55 | 0.55 | 89 | 1018.9 |
| 20260904195212 | 67 | 106 | 4.0 | 6.0 | 0.00 | 0.55 | 0.55 | 88 | 1019.0 |
| 20260904194708 | 67 | 143 | 4.0 | 9.0 | 0.00 | 0.55 | 0.55 | 88 | 1018.9 |
| 20260904194201 | 67 | 213 | 6.0 | 9.0 | 0.00 | 0.55 | 0.55 | 89 | 1019.0 |
| 20260904193657 | 67 | 144 | 5.0 | 11.0 | 0.00 | 0.55 | 0.55 | 90 | 1018.8 |
| 20260904193153 | 67 | 169 | 4.0 | 10.0 | 0.00 | 0.55 | 0.55 | 89 | 1018.9 |
| 20260904192653 | 67 | 147 | 5.0 | 8.0 | 0.00 | 0.55 | 0.55 | 90 | 1018.9 |
| 20260904192148 | 67 | 122 | 5.0 | 7.0 | 0.00 | 0.55 | 0.55 | 90 | 1018.8 |
| 20260904191645 | 66 | 78 | 4.0 | 6.0 | 0.00 | 0.55 | 0.55 | 90 | 1018.8 |
| 20260904191141 | 66 | 144 | 5.0 | 8.0 | 0.00 | 0.55 | 0.55 | 91 | 1018.9 |
| 20260904190637 | 66 | 150 | 7.0 | 10.0 | 0.00 | 0.55 | 0.55 | 90 | 1019.0 |
| 20260904190133 | 66 | 101 | 4.0 | 7.0 | 0.00 | 0.55 | 0.55 | 90 | 1019.0 |
| 20260904185630 | 67 | 85 | 2.0 | 3.0 | 0.00 | 0.55 | 0.55 | 91 | 1019.0 |
| 20260904185129 | 66 | 96 | 2.0 | 6.0 | 0.00 | 0.55 | 0.55 | 91 | 1018.9 |
| 20260904184628 | 66 | 152 | 4.0 | 10.0 | 0.00 | 0.55 | 0.55 | 92 | 1019.1 |
| 20260904184124 | 66 | 203 | 2.0 | 6.0 | 0.00 | 0.55 | 0.55 | 92 | 1019.1 |
| 20260904183620 | 66 | 52 | 3.0 | 6.0 | 0.00 | 0.55 | 0.55 | 92 | 1019.1 |
| 20260904183114 | 66 | 183 | 3.0 | 4.0 | 0.00 | 0.55 | 0.55 | 92 | 1019.0 |
| 20260904182609 | 66 | 120 | 3.0 | 4.0 | 0.00 | 0.55 | 0.55 | 93 | 1019.0 |
| 20260904182104 | 66 | 72 | 6.0 | 10.0 | 0.00 | 0.55 | 0.55 | 92 | 1019.0 |
| 20260904181601 | 67 | 83 | 5.0 | 7.0 | 0.00 | 0.55 | 0.55 | 91 | 1019.0 |
| 20260904181100 | 67 | 178 | 5.0 | 11.0 | 0.00 | 0.55 | 0.55 | 90 | 1019.0 |
| 20260904180554 | 67 | 15 | 2.0 | 7.0 | 0.00 | 0.55 | 0.55 | 90 | 1018.8 |
| 20260904180049 | 67 | 53 | 9.0 | 15.0 | 0.00 | 0.55 | 0.55 | 91 | 1018.9 |
| 20260904175543 | 67 | 9 | 2.0 | 10.0 | 0.00 | 0.55 | 0.55 | 90 | 1018.7 |
| 20260904175042 | 67 | 99 | 5.0 | 7.0 | 0.00 | 0.55 | 0.55 | 90 | 1018.5 |
| 20260904174537 | 67 | 68 | 4.0 | 13.0 | 0.00 | 0.55 | 0.55 | 91 | 1018.4 |
| 20260904174034 | 66 | 174 | 4.0 | 7.0 | 0.00 | 0.55 | 0.55 | 92 | 1018.4 |
| 20260904173533 | 66 | 112 | 7.0 | 9.0 | 0.00 | 0.55 | 0.55 | 91 | 1018.4 |
| 20260904173029 | 66 | 106 | 7.0 | 13.0 | 0.00 | 0.55 | 0.55 | 91 | 1018.6 |
| 20260904172525 | 66 | 159 | 4.0 | 13.0 | 0.00 | 0.55 | 0.55 | 92 | 1018.5 |
| 20260904172024 | 66 | 117 | 3.0 | 8.0 | 0.00 | 0.55 | 0.55 | 92 | 1018.5 |
| 20260904171519 | 67 | 81 | 5.0 | 8.0 | 0.00 | 0.55 | 0.55 | 91 | 1018.6 |
| 20260904171015 | 67 | 192 | 3.0 | 10.0 | 0.00 | 0.55 | 0.55 | 92 | 1018.4 |
| 20260904170510 | 66 | 130 | 5.0 | 15.0 | 0.00 | 0.55 | 0.55 | 92 | 1018.4 |
| 20260904170007 | 66 | 68 | 8.0 | 11.0 | 0.00 | 0.55 | 0.55 | 93 | 1018.4 |
| 20260904165505 | 66 | 80 | 4.0 | 7.0 | 0.00 | 0.55 | 0.55 | 93 | 1018.1 |
| 20260904165005 | 66 | 130 | 6.0 | 11.0 | 0.00 | 0.55 | 0.55 | 92 | 1018.5 |
| 20260904164500 | 66 | 178 | 4.0 | 11.0 | 0.00 | 0.55 | 0.55 | 93 | 1018.4 |
| 20260904163956 | 66 | 50 | 5.0 | 9.0 | 0.00 | 0.55 | 0.55 | 93 | 1018.4 |
| 20260904163450 | 65 | 146 | 7.0 | 10.0 | 0.00 | 0.55 | 0.55 | 94 | 1018.6 |
| 20260904162949 | 66 | 114 | 7.0 | 10.0 | 0.00 | 0.55 | 0.55 | 94 | 1018.5 |
| 20260904162444 | 66 | 188 | 3.0 | 9.0 | 0.00 | 0.55 | 0.55 | 93 | 1018.6 |
| 20260904161934 | 66 | 167 | 5.0 | 14.0 | 0.00 | 0.55 | 0.55 | 93 | 1018.4 |
| 20260904161430 | 66 | 48 | 7.0 | 10.0 | 0.00 | 0.55 | 0.55 | 92 | 1018.6 |
| 20260904160925 | 68 | 97 | 5.0 | 8.0 | 0.00 | 0.55 | 0.55 | 90 | 1018.3 |
| 20260904160420 | 67 | 222 | 4.0 | 7.0 | 0.00 | 0.55 | 0.55 | 91 | 1018.5 |
| 20260904155915 | 66 | 88 | 4.0 | 7.0 | 0.00 | 0.55 | 0.55 | 92 | 1018.3 |
| 20260904155410 | 66 | 89 | 3.0 | 8.0 | 0.00 | 0.55 | 0.55 | 94 | 1018.4 |
| 20260904154909 | 65 | 109 | 3.0 | 7.0 | 0.00 | 0.55 | 0.55 | 94 | 1018.1 |
| 20260904154403 | 65 | 157 | 6.0 | 9.0 | 0.00 | 0.55 | 0.55 | 94 | 1018.4 |
| 20260904153859 | 65 | 178 | 4.0 | 10.0 | 0.00 | 0.55 | 0.55 | 95 | 1018.4 |
| 20260904153354 | 65 | 125 | 5.0 | 7.0 | 0.00 | 0.55 | 0.55 | 95 | 1018.4 |
| 20260904152850 | 64 | 74 | 4.0 | 9.0 | 0.00 | 0.55 | 0.55 | 96 | 1018.3 |
| 20260904152349 | 64 | 169 | 4.0 | 6.0 | 0.00 | 0.55 | 0.55 | 96 | 1018.4 |
| 20260904151844 | 65 | 150 | 4.0 | 10.0 | 0.00 | 0.55 | 0.55 | 96 | 1018.4 |
| 20260904151343 | 65 | 79 | 6.0 | 10.0 | 0.00 | 0.55 | 0.55 | 95 | 1018.5 |
| 20260904150839 | 64 | 147 | 6.0 | 7.0 | 0.00 | 0.55 | 0.55 | 97 | 1018.3 |
| 20260904150334 | 64 | 171 | 7.0 | 9.0 | 0.00 | 0.55 | 0.55 | 97 | 1018.3 |
| 20260904145832 | 64 | 132 | 6.0 | 9.0 | 0.00 | 0.55 | 0.55 | 98 | 1018.3 |
| 20260904145329 | 64 | 67 | 5.0 | 11.0 | 0.00 | 0.55 | 0.55 | 98 | 1018.4 |
| 20260904144824 | 64 | 168 | 3.0 | 8.0 | 0.00 | 0.55 | 0.55 | 98 | 1018.3 |
| 20260904144320 | 64 | 134 | 4.0 | 8.0 | 0.00 | 0.55 | 0.55 | 98 | 1018.1 |
| 20260904143815 | 64 | 114 | 3.0 | 7.0 | 0.00 | 0.55 | 0.55 | 98 | 1018.3 |
| 20260904143312 | 64 | 152 | 4.0 | 9.0 | 0.00 | 0.55 | 0.55 | 99 | 1018.3 |
| 20260904142808 | 64 | 18 | 4.0 | 7.0 | 0.00 | 0.55 | 0.55 | 99 | 1018.1 |
| 20260904142306 | 64 | 102 | 4.0 | 8.0 | 0.00 | 0.55 | 0.55 | 99 | 1018.4 |
| 20260904141803 | 64 | 38 | 5.0 | 7.0 | 0.00 | 0.55 | 0.55 | 99 | 1018.1 |
| 20260904141259 | 63 | 121 | 4.0 | 8.0 | 0.00 | 0.55 | 0.55 | 99 | 1018.1 |
| 20260904140754 | 63 | 210 | 2.0 | 6.0 | 0.00 | 0.55 | 0.55 | 99 | 1018.1 |
| 20260904140250 | 63 | 107 | 3.0 | 7.0 | 0.00 | 0.55 | 0.55 | 99 | 1018.3 |
| 20260904135749 | 63 | 120 | 3.0 | 10.0 | 0.00 | 0.55 | 0.55 | 99 | 1018.1 |
| 20260904135244 | 64 | 91 | 3.0 | 8.0 | 0.00 | 0.55 | 0.55 | 99 | 1017.9 |
| 20260904134740 | 64 | 141 | 4.0 | 6.0 | 0.00 | 0.55 | 0.55 | 99 | 1017.9 |
| 20260904134234 | 64 | 105 | 4.0 | 6.0 | 0.00 | 0.55 | 0.55 | 99 | 1017.9 |
| 20260904133729 | 63 | 58 | 5.0 | 10.0 | 0.00 | 0.55 | 0.55 | 99 | 1017.8 |
| 20260904133225 | 63 | 120 | 5.0 | 7.0 | 0.00 | 0.55 | 0.55 | 99 | 1017.9 |
| 20260904132724 | 63 | 93 | 4.0 | 7.0 | 0.00 | 0.55 | 0.55 | 99 | 1018.0 |
| 20260904132219 | 63 | 242 | 4.0 | 8.0 | 0.00 | 0.55 | 0.55 | 99 | 1017.7 |
| 20260904131719 | 63 | 190 | 2.0 | 9.0 | 0.00 | 0.55 | 0.55 | 99 | 1017.7 |
| 20260904131215 | 63 | 140 | 5.0 | 7.0 | 0.00 | 0.55 | 0.55 | 99 | 1017.6 |
| 20260904130714 | 63 | 111 | 3.0 | 7.0 | 0.00 | 0.55 | 0.55 | 99 | 1017.5 |
| 20260904130213 | 62 | 115 | 6.0 | 10.0 | 0.00 | 0.55 | 0.55 | 99 | 1017.6 |
| 20260904125710 | 62 | 163 | 4.0 | 9.0 | 0.00 | 0.55 | 0.55 | 99 | 1017.5 |
| 20260904125205 | 62 | 78 | 5.0 | 8.0 | 0.00 | 0.55 | 0.55 | 99 | 1017.4 |
| 20260904124700 | 62 | 155 | 4.0 | 10.0 | 0.00 | 0.55 | 0.55 | 99 | 1017.7 |
| 20260904124156 | 62 | 213 | 5.0 | 8.0 | 0.00 | 0.55 | 0.55 | 99 | 1017.4 |
| 20260904123656 | 62 | 105 | 2.0 | 7.0 | 0.00 | 0.55 | 0.55 | 99 | 1017.4 |
| 20260904123152 | 62 | 97 | 5.0 | 7.0 | 0.00 | 0.55 | 0.55 | 99 | 1017.3 |
| 20260904122652 | 62 | 86 | 3.0 | 10.0 | 0.00 | 0.55 | 0.55 | 99 | 1017.0 |
| 20260904122147 | 62 | 157 | 3.0 | 7.0 | 0.00 | 0.55 | 0.55 | 99 | 1016.8 |
| 20260904121642 | 62 | 299 | 3.0 | 7.0 | 0.00 | 0.55 | 0.55 | 99 | 1016.5 |
| 20260904121138 | 62 | 170 | 3.0 | 10.0 | 0.00 | 0.55 | 0.55 | 99 | 1016.6 |
| 20260904120634 | 62 | 138 | 4.0 | 7.0 | 0.00 | 0.55 | 0.55 | 99 | 1017.0 |
| 20260904120130 | 62 | 160 | 3.0 | 7.0 | 0.00 | 0.55 | 0.55 | 99 | 1017.2 |
| 20260904115625 | 62 | 177 | 3.0 | 6.0 | 0.00 | 0.55 | 0.55 | 99 | 1017.3 |
| 20260904115120 | 62 | 204 | 1.0 | 3.0 | 0.00 | 0.55 | 0.55 | 99 | 1017.4 |
| 20260904114619 | 62 | 52 | 4.0 | 9.0 | 0.00 | 0.55 | 0.55 | 99 | 1017.4 |
| 20260904114114 | 62 | 102 | 3.0 | 7.0 | 0.00 | 0.55 | 0.55 | 99 | 1017.2 |
| 20260904113608 | 62 | 128 | 3.0 | 4.0 | 0.00 | 0.55 | 0.55 | 99 | 1017.5 |
| 20260904113107 | 62 | 143 | 3.0 | 4.0 | 0.00 | 0.55 | 0.55 | 99 | 1017.3 |
| 20260904112603 | 62 | 127 | 2.0 | 4.0 | 0.00 | 0.55 | 0.55 | 99 | 1017.6 |
| 20260904112059 | 62 | 145 | 2.0 | 4.0 | 0.00 | 0.55 | 0.55 | 99 | 1017.3 |
| 20260904111554 | 62 | 60 | 4.0 | 7.0 | 0.05 | 0.55 | 0.55 | 99 | 1017.4 |
| 20260904111050 | 62 | 158 | 1.0 | 4.0 | 0.05 | 0.55 | 0.55 | 99 | 1017.1 |
| 20260904110544 | 62 | 86 | 1.0 | 4.0 | 0.00 | 0.54 | 0.54 | 99 | 1017.1 |
| 20260904110040 | 62 | 132 | 4.0 | 6.0 | 0.00 | 0.54 | 0.54 | 99 | 1017.0 |
| 20260904105534 | 62 | 161 | 1.0 | 3.0 | 0.00 | 0.54 | 0.54 | 99 | 1016.9 |
| 20260904105029 | 62 | 164 | 2.0 | 6.0 | 0.24 | 0.54 | 0.54 | 99 | 1016.9 |
| 20260904104525 | 62 | 137 | 2.0 | 7.0 | 0.24 | 0.54 | 0.54 | 99 | 1017.2 |
| 20260904104020 | 62 | 175 | 3.0 | 3.0 | 0.07 | 0.50 | 0.50 | 99 | 1017.2 |
| 20260904103516 | 62 | 175 | 3.0 | 3.0 | 0.31 | 0.50 | 0.50 | 99 | 1017.5 |
| 20260904103012 | 62 | 189 | 2.0 | 3.0 | 0.31 | 0.49 | 0.49 | 99 | 1017.2 |
| 20260904102507 | 62 | 116 | 3.0 | 4.0 | 0.31 | 0.45 | 0.45 | 99 | 1017.0 |
| 20260904102003 | 62 | 210 | 0.0 | 0.0 | 0.12 | 0.42 | 0.42 | 99 | 1018.1 |
| 20260904101500 | 62 | 227 | 0.0 | 0.0 | 0.05 | 0.40 | 0.40 | 99 | 1017.7 |
| 20260904100955 | 62 | 156 | 0.0 | 2.0 | 0.00 | 0.39 | 0.39 | 99 | 1017.6 |
| 20260904100450 | 62 | 96 | 3.0 | 6.0 | 0.00 | 0.39 | 0.39 | 99 | 1017.1 |
| 20260904095949 | 62 | 183 | 4.0 | 9.0 | 0.00 | 0.39 | 0.39 | 99 | 1016.8 |
| 20260904095445 | 62 | 104 | 4.0 | 9.0 | 0.00 | 0.39 | 0.39 | 99 | 1016.8 |
| 20260904094944 | 62 | 157 | 5.0 | 8.0 | 0.00 | 0.39 | 0.39 | 99 | 1016.8 |
| 20260904094439 | 62 | 131 | 6.0 | 9.0 | 0.00 | 0.39 | 0.39 | 99 | 1016.8 |
| 20260904093935 | 62 | 48 | 3.0 | 8.0 | 0.00 | 0.39 | 0.39 | 99 | 1016.9 |
| 20260904093431 | 62 | 120 | 4.0 | 7.0 | 0.00 | 0.39 | 0.39 | 99 | 1016.8 |
| 20260904092921 | 62 | 95 | 4.0 | 7.0 | 0.00 | 0.39 | 0.39 | 99 | 1016.9 |
| 20260904092417 | 62 | 47 | 5.0 | 6.0 | 0.00 | 0.39 | 0.39 | 99 | 1017.2 |
| 20260904091907 | 62 | 112 | 2.0 | 3.0 | 0.00 | 0.39 | 0.39 | 99 | 1016.7 |
| 20260904091403 | 62 | 197 | 2.0 | 6.0 | 0.00 | 0.39 | 0.39 | 99 | 1016.8 |
| 20260904090857 | 62 | 184 | 3.0 | 8.0 | 0.00 | 0.39 | 0.39 | 99 | 1017.0 |
| 20260904090354 | 61 | 124 | 2.0 | 6.0 | 0.00 | 0.39 | 0.39 | 99 | 1017.3 |
| 20260904085849 | 61 | 163 | 2.0 | 4.0 | 0.00 | 0.39 | 0.39 | 99 | 1017.3 |
| 20260904085343 | 61 | 86 | 2.0 | 9.0 | 0.00 | 0.39 | 0.39 | 99 | 1017.4 |
| 20260904084838 | 61 | 203 | 2.0 | 4.0 | 0.00 | 0.39 | 0.39 | 99 | 1017.1 |
| 20260904084334 | 61 | 120 | 3.0 | 11.0 | 0.00 | 0.39 | 0.39 | 99 | 1016.7 |
| 20260904083829 | 61 | 92 | 4.0 | 8.0 | 0.00 | 0.39 | 0.39 | 99 | 1016.5 |
| 20260904083326 | 61 | 115 | 4.0 | 8.0 | 0.00 | 0.39 | 0.39 | 99 | 1016.6 |
| 20260904082822 | 61 | 126 | 4.0 | 9.0 | 0.00 | 0.39 | 0.39 | 99 | 1016.9 |
| 20260904082316 | 61 | 105 | 3.0 | 6.0 | 0.00 | 0.39 | 0.39 | 99 | 1016.9 |
| 20260904081811 | 61 | 151 | 3.0 | 6.0 | 0.00 | 0.39 | 0.39 | 99 | 1016.8 |
| 20260904081307 | 61 | 136 | 4.0 | 8.0 | 0.00 | 0.39 | 0.39 | 99 | 1016.5 |
| 20260904080802 | 61 | 180 | 5.0 | 10.0 | 0.00 | 0.39 | 0.39 | 99 | 1016.4 |
| 20260904080258 | 61 | 171 | 3.0 | 13.0 | 0.00 | 0.39 | 0.39 | 99 | 1016.4 |
| 20260904075754 | 61 | 138 | 6.0 | 9.0 | 0.00 | 0.39 | 0.39 | 99 | 1016.8 |
| 20260904075248 | 61 | 117 | 6.0 | 13.0 | 0.07 | 0.39 | 0.39 | 99 | 1016.8 |
| 20260904074748 | 61 | 152 | 4.0 | 11.0 | 0.07 | 0.39 | 0.39 | 99 | 1016.9 |
| 20260904074243 | 61 | 79 | 4.0 | 9.0 | 0.00 | 0.38 | 0.38 | 99 | 1017.2 |
| 20260904073738 | 61 | 122 | 4.0 | 11.0 | 0.00 | 0.38 | 0.38 | 99 | 1017.1 |
| 20260904073234 | 61 | 110 | 5.0 | 7.0 | 0.00 | 0.38 | 0.38 | 99 | 1017.5 |
| 20260904072730 | 61 | 103 | 5.0 | 10.0 | 0.00 | 0.38 | 0.38 | 98 | 1017.6 |
| 20260904072224 | 61 | 94 | 3.0 | 8.0 | 0.00 | 0.38 | 0.38 | 99 | 1018.0 |
| 20260904071720 | 61 | 96 | 3.0 | 6.0 | 0.05 | 0.38 | 0.38 | 99 | 1017.9 |
| 20260904071215 | 61 | 154 | 4.0 | 4.0 | 0.12 | 0.38 | 0.38 | 99 | 1018.5 |
| 20260904070715 | 61 | 181 | 4.0 | 4.0 | 0.17 | 0.38 | 0.38 | 99 | 1018.4 |
| 20260904070213 | 61 | 117 | 4.0 | 4.0 | 0.17 | 0.36 | 0.36 | 99 | 1018.6 |
| 20260904065703 | 61 | 90 | 1.0 | 2.0 | 0.31 | 0.35 | 0.35 | 99 | 1018.5 |
| 20260904065200 | 61 | 182 | 2.0 | 2.0 | 0.24 | 0.32 | 0.32 | 99 | 1018.9 |
| 20260904064659 | 61 | 151 | 2.0 | 2.0 | 0.24 | 0.30 | 0.30 | 99 | 1019.1 |
| 20260904064154 | 61 | 232 | 0.0 | 0.0 | 0.17 | 0.27 | 0.27 | 99 | 1019.4 |
| 20260904063650 | 61 | 210 | 0.0 | 1.0 | 0.12 | 0.26 | 0.26 | 98 | 1019.4 |
| 20260904063146 | 61 | 76 | 3.0 | 3.0 | 0.19 | 0.24 | 0.24 | 98 | 1019.1 |
| 20260904062642 | 61 | 163 | 5.0 | 8.0 | 0.24 | 0.23 | 0.23 | 98 | 1018.9 |
| 20260904062137 | 61 | 107 | 3.0 | 3.0 | 0.24 | 0.21 | 0.21 | 98 | 1018.6 |
| 20260904061633 | 61 | 40 | 4.0 | 7.0 | 0.19 | 0.19 | 0.19 | 97 | 1018.5 |
| 20260904061130 | 61 | 99 | 2.0 | 9.0 | 0.12 | 0.17 | 0.17 | 98 | 1018.6 |
| 20260904060626 | 61 | 125 | 3.0 | 4.0 | 0.24 | 0.16 | 0.16 | 99 | 1018.5 |
| 20260904060122 | 62 | 180 | 4.0 | 9.0 | 0.31 | 0.15 | 0.15 | 99 | 1018.4 |
| 20260904055621 | 62 | 151 | 2.0 | 3.0 | 0.24 | 0.12 | 0.12 | 99 | 1018.7 |
| 20260904055116 | 62 | 163 | 3.0 | 4.0 | 0.24 | 0.10 | 0.10 | 99 | 1018.9 |
| 20260904054612 | 62 | 154 | 6.0 | 9.0 | 0.31 | 0.08 | 0.08 | 99 | 1018.7 |
| 20260904054108 | 62 | 162 | 4.0 | 6.0 | 0.31 | 0.06 | 0.06 | 99 | 1018.4 |
| 20260904053608 | 62 | 108 | 2.0 | 3.0 | 0.12 | 0.02 | 0.02 | 99 | 1017.9 |
| 20260904053103 | 62 | 149 | 4.0 | 6.0 | 0.00 | 0.00 | 0.00 | 98 | 1018.4 |
| 20260904052559 | 62 | 117 | 3.0 | 4.0 | 0.00 | 0.00 | 0.00 | 97 | 1018.6 |
| 20260904052055 | 62 | 173 | 5.0 | 7.0 | 0.00 | 0.00 | 0.00 | 96 | 1018.6 |
| 20260904051551 | 62 | 159 | 3.0 | 9.0 | 0.00 | 0.00 | 0.00 | 96 | 1018.0 |
| 20260904051051 | 62 | 96 | 5.0 | 9.0 | 0.00 | 0.00 | 0.00 | 96 | 1017.9 |
| 20260904050547 | 62 | 238 | 4.0 | 7.0 | 0.00 | 0.00 | 0.00 | 96 | 1018.0 |
| 20260904050043 | 62 | 77 | 4.0 | 7.0 | 0.00 | 0.00 | 0.00 | 96 | 1018.1 |
| 20260904045538 | 62 | 141 | 3.0 | 13.0 | 0.00 | 0.00 | 0.00 | 96 | 1018.6 |
| 20260904045037 | 62 | 118 | 2.0 | 7.0 | 0.00 | 0.00 | 0.00 | 96 | 1018.4 |
| 20260904044534 | 62 | 45 | 6.0 | 9.0 | 0.00 | 0.00 | 0.00 | 96 | 1018.3 |
| 20260904044030 | 62 | 211 | 6.0 | 8.0 | 0.00 | 0.00 | 0.00 | 96 | 1017.9 |
| 20260904043526 | 62 | 146 | 5.0 | 9.0 | 0.00 | 0.00 | 0.00 | 96 | 1018.1 |
| 20260904043022 | 62 | 211 | 6.0 | 9.0 | 0.00 | 0.00 | 0.00 | 95 | 1018.1 |
| 20260904042518 | 62 | 96 | 4.0 | 8.0 | 0.00 | 0.00 | 0.00 | 95 | 1018.0 |
| 20260904042013 | 62 | 116 | 4.0 | 7.0 | 0.00 | 0.00 | 0.00 | 95 | 1018.1 |
| 20260904041508 | 62 | 117 | 4.0 | 8.0 | 0.00 | 0.00 | 0.00 | 94 | 1017.9 |
| 20260904041004 | 62 | 153 | 5.0 | 9.0 | 0.00 | 0.00 | 0.00 | 94 | 1017.8 |
| 20260904040458 | 63 | 301 | 5.0 | 9.0 | 0.00 | 0.00 | 0.00 | 94 | 1017.9 |
| 20260904035955 | 62 | 88 | 7.0 | 9.0 | 0.00 | 0.00 | 0.00 | 94 | 1017.9 |
| 20260904035451 | 62 | 61 | 2.0 | 7.0 | 0.00 | 0.00 | 0.00 | 95 | 1017.9 |
| 20260904034950 | 62 | 110 | 4.0 | 7.0 | 0.00 | 0.00 | 0.00 | 95 | 1018.0 |
| 20260904034445 | 62 | 140 | 4.0 | 9.0 | 0.00 | 0.00 | 0.00 | 94 | 1018.4 |
| 20260904033941 | 62 | 85 | 7.0 | 10.0 | 0.00 | 0.00 | 0.00 | 94 | 1018.5 |
| 20260904033436 | 62 | 117 | 4.0 | 8.0 | 0.00 | 0.00 | 0.00 | 94 | 1018.1 |
| 20260904032933 | 62 | 115 | 4.0 | 7.0 | 0.00 | 0.00 | 0.00 | 94 | 1018.0 |
| 20260904032428 | 62 | 85 | 4.0 | 9.0 | 0.00 | 0.00 | 0.00 | 94 | 1018.0 |
| 20260904031927 | 62 | 164 | 4.0 | 9.0 | 0.00 | 0.00 | 0.00 | 95 | 1017.9 |
| 20260904031423 | 63 | 114 | 3.0 | 6.0 | 0.00 | 0.00 | 0.00 | 95 | 1018.1 |
| 20260904030919 | 63 | 104 | 2.0 | 10.0 | 0.00 | 0.00 | 0.00 | 94 | 1018.5 |
| 20260904030419 | 63 | 169 | 2.0 | 6.0 | 0.00 | 0.00 | 0.00 | 95 | 1018.3 |
| 20260904025915 | 63 | 192 | 6.0 | 9.0 | 0.00 | 0.00 | 0.00 | 95 | 1018.1 |
| 20260904025411 | 63 | 92 | 4.0 | 8.0 | 0.00 | 0.00 | 0.00 | 95 | 1018.5 |
| 20260904024910 | 63 | 119 | 4.0 | 10.0 | 0.00 | 0.00 | 0.00 | 95 | 1018.6 |
| 20260904024405 | 63 | 152 | 4.0 | 6.0 | 0.00 | 0.00 | 0.00 | 95 | 1018.6 |
| 20260904023902 | 63 | 156 | 5.0 | 7.0 | 0.00 | 0.00 | 0.00 | 95 | 1018.6 |
| 20260904023358 | 63 | 88 | 6.0 | 10.0 | 0.00 | 0.00 | 0.00 | 95 | 1018.5 |
| 20260904022856 | 63 | 128 | 2.0 | 4.0 | 0.00 | 0.00 | 0.00 | 94 | 1018.8 |
| 20260904022354 | 63 | 115 | 5.0 | 8.0 | 0.00 | 0.00 | 0.00 | 94 | 1018.7 |
| 20260904021850 | 63 | 88 | 4.0 | 9.0 | 0.00 | 0.00 | 0.00 | 94 | 1018.6 |
| 20260904021345 | 63 | 172 | 3.0 | 7.0 | 0.00 | 0.00 | 0.00 | 95 | 1018.4 |
| 20260904020840 | 62 | 119 | 4.0 | 10.0 | 0.00 | 0.00 | 0.00 | 95 | 1018.7 |
| 20260904020335 | 62 | 196 | 2.0 | 8.0 | 0.00 | 0.00 | 0.00 | 95 | 1018.6 |
| 20260904015833 | 62 | 139 | 3.0 | 7.0 | 0.00 | 0.00 | 0.00 | 94 | 1018.4 |
| 20260904015329 | 62 | 164 | 2.0 | 6.0 | 0.00 | 0.00 | 0.00 | 94 | 1018.7 |
| 20260904014827 | 62 | 207 | 2.0 | 7.0 | 0.00 | 0.00 | 0.00 | 94 | 1018.8 |
| 20260904014323 | 62 | 145 | 2.0 | 3.0 | 0.00 | 0.00 | 0.00 | 94 | 1018.8 |
| 20260904013818 | 62 | 172 | 3.0 | 7.0 | 0.00 | 0.00 | 0.00 | 94 | 1018.9 |
| 20260904013314 | 62 | 101 | 1.0 | 6.0 | 0.00 | 0.00 | 0.00 | 93 | 1018.6 |
| 20260904012810 | 62 | 133 | 3.0 | 6.0 | 0.00 | 0.00 | 0.00 | 93 | 1018.4 |
| 20260904012306 | 62 | 202 | 3.0 | 4.0 | 0.00 | 0.00 | 0.00 | 91 | 1018.5 |
| 20260904011804 | 63 | 191 | 3.0 | 7.0 | 0.00 | 0.00 | 0.00 | 90 | 1018.4 |
| 20260904011259 | 63 | 149 | 3.0 | 6.0 | 0.00 | 0.00 | 0.00 | 90 | 1018.3 |
| 20260904010753 | 63 | 139 | 3.0 | 7.0 | 0.00 | 0.00 | 0.00 | 89 | 1018.6 |
| 20260904010251 | 63 | 102 | 3.0 | 3.0 | 0.00 | 0.00 | 0.00 | 88 | 1018.4 |
| 20260904005750 | 63 | 159 | 2.0 | 4.0 | 0.00 | 0.00 | 0.00 | 88 | 1018.3 |
| 20260904005247 | 63 | 162 | 1.0 | 4.0 | 0.00 | 0.00 | 0.00 | 87 | 1017.9 |
| 20260904004741 | 63 | 164 | 5.0 | 6.0 | 0.00 | 0.00 | 0.00 | 87 | 1017.8 |
| 20260904004237 | 64 | 153 | 2.0 | 3.0 | 0.00 | 0.00 | 0.00 | 86 | 1018.0 |
| 20260904003731 | 64 | 174 | 2.0 | 4.0 | 0.00 | 0.00 | 0.00 | 85 | 1017.8 |
| 20260904003228 | 64 | 81 | 2.0 | 6.0 | 0.00 | 0.00 | 0.00 | 85 | 1018.0 |
| 20260904002723 | 64 | 168 | 1.0 | 6.0 | 0.00 | 0.00 | 0.00 | 85 | 1018.0 |
| 20260904002220 | 64 | 130 | 4.0 | 4.0 | 0.00 | 0.00 | 0.00 | 84 | 1018.3 |
| 20260904001714 | 65 | 127 | 3.0 | 7.0 | 0.00 | 0.00 | 0.00 | 84 | 1018.1 |
| 20260904001213 | 65 | 92 | 1.0 | 4.0 | 0.00 | 0.00 | 0.00 | 83 | 1018.1 |
| 20260904000709 | 65 | 156 | 2.0 | 3.0 | 0.00 | 0.00 | 0.00 | 83 | 1018.0 |
| 20260904000204 | 65 | 57 | 3.0 | 7.0 | 0.00 | 0.00 | 0.00 | 82 | 1018.1 |
| 20260903235657 | 66 | 82 | 2.0 | 4.0 | 0.00 | 0.00 | 0.00 | 82 | 1018.3 |
| 20260903235154 | 66 | 112 | 2.0 | 3.0 | 0.00 | 0.00 | 0.00 | 81 | 1018.0 |
| 20260903234648 | 66 | 129 | 2.0 | 4.0 | 0.00 | 0.00 | 0.00 | 80 | 1018.3 |
| 20260903234144 | 66 | 134 | 2.0 | 6.0 | 0.00 | 0.00 | 0.00 | 79 | 1018.3 |
| 20260903233640 | 66 | 79 | 2.0 | 7.0 | 0.00 | 0.00 | 0.00 | 79 | 1018.3 |
| 20260903233136 | 67 | 167 | 4.0 | 6.0 | 0.00 | 0.00 | 0.00 | 79 | 1018.4 |
| 20260903232630 | 67 | 107 | 2.0 | 9.0 | 0.00 | 0.00 | 0.00 | 78 | 1018.5 |
| 20260903232126 | 67 | 121 | 4.0 | 6.0 | 0.00 | 0.00 | 0.00 | 77 | 1018.3 |
| 20260903231620 | 67 | 93 | 3.0 | 8.0 | 0.00 | 0.00 | 0.00 | 77 | 1018.3 |
| 20260903231115 | 68 | 89 | 4.0 | 10.0 | 0.00 | 0.00 | 0.00 | 77 | 1018.4 |
| 20260903230611 | 68 | 165 | 4.0 | 8.0 | 0.00 | 0.00 | 0.00 | 76 | 1018.0 |
| 20260903230109 | 69 | 103 | 4.0 | 9.0 | 0.00 | 0.00 | 0.00 | 75 | 1018.0 |
| 20260903225607 | 69 | 138 | 4.0 | 7.0 | 0.00 | 0.00 | 0.00 | 74 | 1017.9 |
| 20260903225103 | 69 | 111 | 4.0 | 7.0 | 0.00 | 0.00 | 0.00 | 74 | 1017.8 |
| 20260903224559 | 69 | 99 | 3.0 | 6.0 | 0.00 | 0.00 | 0.00 | 74 | 1017.9 |
| 20260903224055 | 68 | 78 | 4.0 | 7.0 | 0.00 | 0.00 | 0.00 | 74 | 1018.0 |
| 20260903223554 | 69 | 90 | 4.0 | 13.0 | 0.00 | 0.00 | 0.00 | 74 | 1018.3 |
| 20260903223053 | 70 | 82 | 3.0 | 6.0 | 0.00 | 0.00 | 0.00 | 72 | 1018.5 |
| 20260903222548 | 70 | 96 | 3.0 | 7.0 | 0.00 | 0.00 | 0.00 | 71 | 1018.3 |
| 20260903222047 | 70 | 150 | 2.0 | 7.0 | 0.00 | 0.00 | 0.00 | 72 | 1018.1 |
| 20260903221542 | 70 | 130 | 2.0 | 7.0 | 0.00 | 0.00 | 0.00 | 73 | 1018.0 |
| 20260903221040 | 71 | 171 | 4.0 | 9.0 | 0.00 | 0.00 | 0.00 | 72 | 1018.1 |
| 20260903220539 | 71 | 212 | 4.0 | 7.0 | 0.00 | 0.00 | 0.00 | 71 | 1018.1 |
| 20260903220033 | 71 | 157 | 7.0 | 9.0 | 0.00 | 0.00 | 0.00 | 70 | 1017.9 |
| 20260903215527 | 71 | 134 | 4.0 | 7.0 | 0.00 | 0.00 | 0.00 | 71 | 1017.9 |
| 20260903215027 | 70 | 144 | 2.0 | 11.0 | 0.00 | 0.00 | 0.00 | 72 | 1017.9 |
| 20260903214522 | 71 | 101 | 4.0 | 8.0 | 0.00 | 0.00 | 0.00 | 71 | 1018.0 |
| 20260903214021 | 71 | 193 | 4.0 | 14.0 | 0.00 | 0.00 | 0.00 | 70 | 1018.0 |
| 20260903213517 | 71 | 108 | 3.0 | 10.0 | 0.00 | 0.00 | 0.00 | 71 | 1018.1 |
| 20260903213013 | 71 | 134 | 4.0 | 10.0 | 0.00 | 0.00 | 0.00 | 71 | 1018.0 |
| 20260903212508 | 73 | 163 | 6.0 | 8.0 | 0.00 | 0.00 | 0.00 | 67 | 1017.8 |